Wind_Speed
12 12 21 1 7 5 4 3 3 4 6 6 6 7 11 11 14 16 17 15 13 13 13 13 12 10 11 13 11 11 10 8 5 3 2 1 3 2 2 3 6 2 3 5
13 12 2 6 7 3 2 1 6 6 8 6 8 9 13 14 13 15 17 15 14 12 15 15 12 12 11 11 12 11 10 8 5 4 3 4 4 3 5 5 5 2 2 5
19 16 1 3 3 5 7 7 4 5 13 8 6 8 14 15 13 16 16 15 14 13 17 13 14 14 14 14 12 10 9 9 7 6 5 4 3 1 1 3 4 2 3 4
16 11 6 1 4 5 4 4 5 11 15 14 17 19 22 20 18 17 17 19 16 16 14 15 13 13 13 14 15 13 11 10 9 8 6 5 4 4 3 7 10 5 2 2
15 6 3 4 5 5 5 2 6 13 13 5 12 11 17 17 18 17 17 19 19 19 17 17 15 17 12 15 14 14 15 12 11 8 8 7 7 6 8 6 8 3 6 2
19 7 7 5 4 5 6 7 11 10 8 21 8 21 11 8 8 14 17 18 19 19 18 18 16 15 14 14 14 15 21 15 13 11 9 8 8 8 8 9 7 5 6 4
17 19 12 9 6 6 10 14 12 4 11 5 6 10 13 5 2 7 17 21 20 18 17 17 18 16 16 17 15 17 22 14 14 11 9 9 10 9 9 6 7 9 4 3
19 20 16 14 12 12 16 12 4 5 2 11 4 11 9 5 2 1 6 20 22 20 18 16 16 16 17 17 15 16 17 14 13 11 10 10 9 8 8 7 6 7 9 5
25 23 20 13 11 10 11 10 11 9 13 22 12 13 12 8 3 2 4 8 14 17 18 18 16 14 16 16 17 16 16 14 11 10 11 13 10 8 9 7 6 6 7 11
12 9 16 13 12 13 14 12 13 10 5 3 4 18 13 7 8 7 8 9 12 15 17 18 18 17 16 16 15 16 16 15 13 11 10 8 9 9 9 8 8 8 10 8
8 12 15 11 12 17 11 15 13 4 17 10 6 4 3 8 13 12 10 9 11 10 8 12 17 19 16 15 16 15 17 16 14 14 15 10 6 6 8 9 10 10 11 10
14 11 10 16 9 7 8 14 15 12 6 16 4 19 7 6 12 11 11 9 12 11 10 10 10 14 20 20 20 21 19 19 20 19 19 16 11 12 12 11 11 13 13 13
15 13 14 16 11 8 11 10 13 14 10 20 4 10 8 6 10 12 11 9 6 3 5 10 11 12 16 27 31 28 29 29 25 24 23 23 21 20 20 20 19 18 16 16
12 17 10 7 8 1 8 5 6 15 16 17 11 21 23 14 15 16 16 14 12 9 4 2 8 14 15 17 20 31 33 32 30 27 27 27 26 25 23 24 24 24 22 20
14 14 7 8 8 8 1 4 5 10 7 6 17 18 20 18 18 17 15 12 12 10 9 6 4 8 11 16 19 21 30 31 32 30 29 29 28 27 26 27 26 25 25 23
13 12 7 5 3 5 9 9 8 8 7 8 18 25 23 20 19 17 13 12 8 8 9 11 11 8 9 9 15 19 25 30 31 31 29 30 29 29 30 29 29 28 27 27
14 10 3 10 3 5 13 14 10 9 7 11 2 20 19 18 17 15 12 5 4 6 11 16 15 9 10 11 12 11 17 20 24 28 29 28 28 27 28 30 32 32 33 29
9 10 8 16 5 9 5 1 5 9 8 5 3 4 16 14 15 14 10 4 4 9 16 20 17 11 7 8 12 14 14 14 17 21 23 24 24 25 24 26 30 33 36 34
12 11 8 7 11 13 3 4 4 10 11 8 14 18 18 17 17 12 10 6 8 12 19 21 15 8 5 4 3 6 11 14 15 16 17 18 19 19 20 22 23 25 26 27
16 14 14 12 10 9 4 1 4 8 12 13 18 16 16 16 8 12 9 7 10 12 18 17 7 6 5 6 6 4 2 2 6 10 12 13 14 14 14 15 16 17 18 19
19 18 17 17 13 12 4 3 5 11 2 2 8 12 12 10 6 11 6 7 4 10 17 12 3 1 3 4 4 4 4 4 3 4 5 6 7 8 9 11 13 16 18 19
14 19 19 17 13 10 3 5 10 3 2 3 7 11 12 12 11 12 11 11 8 15 18 3 2 1 3 3 3 4 4 5 5 5 5 6 7 8 9 10 12 16 19 20
10 13 12 9 5 5 2 6 4 4 4 6 8 9 11 8 7 8 10 11 8 3 1 2 1 7 5 6 6 5 5 4 4 5 6 7 9 9 9 12 13 13 14 14
11 13 5 5 9 3 4 4 6 6 5 5 7 9 6 7 7 7 6 4 3 4 3 3 4 6 7 6 7 8 6 6 5 6 7 8 9 9 10 12 12 13 17 14
6 14 11 9 6 6 5 7 8 6 6 8 7 8 9 9 9 8 8 8 7 10 9 8 7 10 8 8 9 10 9 9 8 8 10 10 9 8 8 10 11 17 18 16
12 11 12 7 8 8 4 11 10 7 6 5 6 8 9 10 10 12 9 11 11 13 11 10 11 13 11 12 12 11 10 10 8 8 7 7 10 10 11 14 18 17 19 18
Wind_Direction
255 262 200 91 62 52 30 54 146 135 159 172 180 167 177 170 181 196 199 202 216 207 203 194 186 199 187 183 183 183 180 174 177 187 228 270 222 294 218 89 270 269 338 0
231 249 50 81 38 16 73 165 149 154 168 177 185 184 185 179 183 196 199 204 207 208 202 192 201 195 200 215 191 193 188 179 187 189 225 223 240 227 204 208 250 275 344 2
237 291 96 22 351 308 106 115 207 212 197 166 148 200 195 188 184 192 194 199 201 203 200 199 200 202 209 227 232 215 207 201 196 210 222 227 227 228 214 197 223 242 312 21
251 254 245 284 302 303 108 95 176 199 198 191 183 226 195 187 188 194 198 197 196 196 200 203 211 214 218 221 225 225 222 216 212 208 222 230 224 210 277 119 229 251 271 3
232 215 237 245 328 330 53 82 184 204 221 144 195 10 162 179 187 202 202 207 202 203 206 216 211 218 216 228 239 251 239 230 222 214 224 230 232 223 209 198 237 232 239 283
234 228 228 263 284 289 258 222 206 195 174 329 23 99 262 159 193 210 216 211 211 212 210 213 214 214 219 221 230 235 257 238 230 221 222 227 239 220 211 213 221 133 281 291
231 235 231 236 244 259 258 240 296 72 261 136 49 105 73 70 131 214 220 214 210 210 209 212 210 215 220 223 227 224 242 235 235 231 228 230 233 227 228 237 223 205 227 155
216 210 211 218 230 257 274 291 194 311 6 116 47 67 67 71 86 194 206 213 202 211 210 209 214 218 218 219 223 224 237 229 230 237 239 241 242 240 240 244 257 177 217 245
193 223 200 200 219 248 287 272 306 298 325 86 255 94 87 80 81 148 184 175 186 209 219 211 217 223 227 225 217 219 218 221 231 244 257 255 249 244 244 246 246 244 233 219
278 60 218 217 227 240 249 311 290 260 207 332 28 48 100 104 94 98 158 170 190 203 212 214 223 222 232 222 222 215 223 225 235 245 253 252 245 245 247 250 252 253 261 249
235 185 181 199 211 213 219 251 254 303 279 263 95 116 155 123 113 113 126 150 163 173 194 210 220 221 227 228 219 225 224 224 243 258 249 240 253 273 273 266 260 259 259 263
210 271 201 205 174 217 254 271 270 227 267 297 64 113 128 125 115 125 121 132 166 180 178 184 201 211 215 214 231 227 218 238 244 251 252 242 262 277 275 284 283 271 268 269
206 234 179 199 190 211 234 231 251 268 269 236 111 155 129 156 121 122 119 117 124 178 224 228 220 215 234 238 229 234 232 236 242 244 253 255 266 274 269 275 279 282 277 271
195 231 129 31 309 10 174 207 228 245 30 334 32 153 155 169 141 128 117 106 90 76 65 214 231 235 245 250 250 246 243 238 245 251 247 251 258 263 263 266 272 274 271 272
222 280 119 160 218 202 253 274 237 269 59 262 225 138 160 165 149 138 130 112 101 77 22 352 278 246 245 244 247 244 238 239 243 248 249 254 256 261 264 267 277 272 269 272
237 221 216 271 258 268 255 225 261 283 302 300 136 157 159 156 153 140 136 120 86 32 11 0 332 291 257 248 242 243 240 238 239 243 245 250 255 259 262 261 265 264 258 259
246 268 261 266 170 283 241 249 222 274 279 294 11 116 147 153 150 150 143 126 55 9 4 347 339 303 269 257 252 248 243 243 244 246 248 250 254 256 255 254 258 258 256 258
244 259 279 279 356 251 89 261 223 252 266 246 160 206 163 160 159 156 161 230 311 344 353 344 344 336 306 261 246 248 252 253 252 253 253 256 260 262 261 259 262 263 264 263
237 259 269 260 251 250 200 218 239 236 211 172 137 141 163 159 158 159 196 246 315 344 345 344 345 359 9 359 324 261 248 247 250 253 257 259 262 262 262 263 266 266 269 270
237 238 252 251 269 290 66 165 239 275 259 176 147 160 160 161 172 186 226 278 326 342 343 345 1 49 25 47 47 47 27 299 263 259 261 264 267 268 268 269 273 274 274 273
228 232 236 235 247 250 199 207 272 249 72 138 161 163 164 159 206 214 247 291 326 322 332 342 46 25 354 37 41 27 17 360 341 331 322 312 306 302 299 294 292 291 289 288
224 217 233 236 259 233 219 281 233 236 169 146 164 177 162 191 220 233 262 290 293 309 314 36 39 348 307 337 345 3 14 33 43 38 17 357 344 338 335 328 320 314 308 304
221 207 237 223 183 186 179 193 210 199 185 147 169 177 181 172 186 227 264 280 279 261 157 166 181 285 299 298 290 305 340 350 7 12 9 4 0 353 345 334 337 1 353 335
221 205 204 186 217 214 209 202 202 201 197 183 189 196 188 203 220 219 202 215 229 246 269 227 206 261 296 294 287 274 280 295 315 329 332 336 347 346 358 20 19 8 354 348
212 209 209 219 218 203 221 197 190 172 161 168 178 191 205 211 220 229 225 222 231 224 235 251 269 278 275 280 290 283 276 277 293 316 322 325 333 339 339 349 351 347 350 342
230 211 207 225 209 203 220 202 197 206 191 193 190 191 198 200 213 226 222 230 210 232 237 270 274 281 278 293 292 272 258 260 277 300 308 311 317 320 325 334 335 338 337 337
Height
3192 3193 3175 3189 3190 3189 3190 3190 3191 3195 3195 3197 3197 3198 3200 3202 3205 3208 3210 3213 3214 3215 3218 3221 3222 3222 3222 3222 3222 3223 3224 3224 3224 3224 3224 3225 3227 3227 3228 3228 3228 3228 3227 3225
3194 3189 3190 3190 3188 3188 3188 3190 3192 3195 3194 3196 3199 3200 3200 3200 3203 3206 3209 3212 3214 3216 3218 3220 3222 3224 3225 3223 3222 3223 3223 3223 3223 3223 3225 3226 3227 3228 3227 3228 3227 3227 3227 3226
3193 3186 3194 3189 3189 3187 3187 3192 3192 3192 3191 3197 3200 3203 3202 3200 3201 3204 3207 3211 3214 3215 3217 3219 3222 3224 3225 3225 3223 3223 3223 3223 3224 3224 3225 3226 3226 3227 3227 3226 3227 3227 3227 3226
3193 3192 3195 3190 3189 3188 3193 3189 3189 3186 3185 3189 3186 3200 3195 3194 3197 3200 3205 3208 3212 3215 3217 3219 3221 3223 3224 3225 3225 3223 3223 3224 3224 3224 3225 3225 3225 3227 3229 3228 3230 3228 3227 3226
3189 3190 3190 3190 3190 3189 3188 3187 3185 3181 3181 3185 3188 3178 3185 3194 3193 3198 3202 3206 3209 3213 3216 3218 3218 3221 3225 3225 3225 3224 3223 3223 3224 3224 3224 3225 3225 3226 3227 3228 3228 3228 3227 3226
3189 3191 3193 3191 3192 3190 3187 3185 3182 3182 3180 3195 3182 3185 3190 3194 3192 3194 3200 3204 3207 3210 3213 3217 3220 3222 3223 3225 3226 3226 3223 3223 3223 3224 3224 3225 3225 3225 3226 3226 3228 3228 3228 3227
3190 3189 3191 3192 3191 3189 3185 3184 3184 3186 3171 3174 3175 3176 3186 3192 3191 3192 3194 3200 3204 3208 3211 3214 3217 3220 3222 3224 3225 3225 3222 3222 3223 3224 3224 3224 3224 3225 3225 3226 3226 3227 3227 3230
3186 3186 3188 3189 3190 3185 3180 3180 3187 3169 3163 3169 3176 3177 3187 3189 3190 3189 3193 3193 3199 3205 3209 3213 3215 3218 3220 3221 3222 3222 3221 3221 3222 3223 3223 3223 3224 3224 3224 3225 3225 3227 3226 3227
3179 3179 3183 3186 3187 3188 3181 3179 3176 3172 3170 3175 3185 3184 3185 3188 3190 3190 3193 3195 3193 3203 3206 3210 3214 3216 3217 3218 3219 3220 3220 3220 3222 3222 3223 3223 3223 3223 3223 3223 3224 3225 3225 3226
3177 3179 3183 3186 3187 3187 3185 3182 3176 3174 3183 3168 3181 3180 3187 3191 3190 3191 3193 3194 3198 3202 3206 3209 3212 3215 3215 3216 3218 3218 3220 3220 3221 3222 3222 3222 3222 3222 3222 3223 3223 3223 3223 3224
3177 3179 3183 3185 3182 3180 3185 3183 3180 3178 3179 3169 3178 3190 3194 3193 3190 3192 3194 3196 3198 3199 3203 3206 3209 3211 3214 3216 3218 3219 3218 3220 3220 3221 3221 3221 3221 3221 3221 3221 3221 3221 3222 3222
3178 3174 3178 3176 3177 3179 3178 3177 3174 3173 3174 3170 3171 3188 3194 3196 3192 3194 3195 3197 3197 3199 3202 3205 3207 3209 3210 3213 3215 3216 3218 3217 3217 3217 3219 3219 3219 3220 3219 3220 3219 3220 3220 3220
3179 3174 3173 3171 3177 3179 3178 3177 3176 3171 3170 3170 3171 3191 3191 3196 3194 3194 3195 3197 3199 3200 3201 3203 3205 3206 3206 3205 3208 3208 3210 3212 3212 3213 3215 3215 3216 3216 3217 3217 3217 3217 3217 3216
3177 3172 3172 3180 3179 3175 3175 3177 3177 3173 3173 3173 3176 3179 3184 3195 3195 3194 3196 3198 3199 3200 3201 3201 3201 3201 3201 3201 3201 3202 3204 3207 3209 3210 3210 3211 3212 3213 3214 3214 3214 3213 3213 3213
3177 3172 3173 3182 3175 3178 3175 3175 3177 3175 3175 3181 3184 3183 3190 3194 3195 3194 3196 3198 3200 3200 3200 3200 3200 3199 3198 3198 3198 3199 3200 3203 3204 3206 3206 3207 3208 3209 3210 3210 3210 3210 3210 3210
3175 3172 3175 3173 3176 3175 3174 3175 3177 3176 3177 3177 3176 3176 3183 3195 3193 3192 3195 3197 3198 3199 3200 3199 3197 3196 3196 3195 3195 3195 3195 3197 3198 3199 3201 3202 3203 3204 3204 3205 3205 3204 3204 3204
3173 3171 3170 3171 3172 3174 3175 3172 3173 3175 3177 3177 3177 3179 3183 3191 3192 3192 3194 3196 3197 3198 3198 3196 3195 3193 3192 3192 3192 3192 3192 3193 3194 3195 3196 3197 3198 3198 3198 3198 3198 3197 3197 3199
3175 3174 3174 3172 3172 3173 3172 3175 3175 3176 3175 3179 3176 3175 3186 3192 3194 3195 3195 3196 3197 3197 3195 3194 3191 3189 3188 3188 3188 3189 3189 3190 3190 3191 3192 3192 3193 3193 3193 3193 3192 3192 3191 3191
3176 3175 3173 3175 3174 3172 3171 3174 3175 3173 3175 3180 3173 3182 3190 3192 3193 3193 3193 3195 3196 3195 3193 3192 3190 3188 3187 3186 3186 3186 3186 3186 3187 3187 3187 3188 3188 3188 3188 3187 3186 3186 3185 3184
3174 3175 3177 3174 3174 3170 3172 3174 3175 3175 3174 3178 3171 3182 3187 3189 3190 3190 3192 3193 3193 3192 3192 3192 3190 3191 3188 3187 3186 3186 3185 3184 3184 3184 3183 3183 3184 3184 3183 3183 3182 3180 3179 3178
3171 3173 3173 3173 3174 3174 3173 3175 3177 3177 3177 3169 3179 3179 3184 3189 3189 3189 3190 3192 3192 3192 3191 3190 3190 3190 3188 3188 3187 3186 3185 3183 3183 3182 3182 3181 3181 3181 3181 3180 3179 3177 3175 3173
3167 3170 3170 3171 3169 3171 3172 3175 3179 3177 3174 3175 3178 3182 3186 3187 3187 3189 3190 3190 3190 3190 3189 3191 3190 3190 3187 3187 3187 3186 3185 3184 3183 3182 3181 3180 3179 3178 3178 3177 3175 3173 3171 3169
3167 3167 3166 3168 3168 3169 3171 3175 3176 3177 3178 3179 3182 3183 3185 3186 3186 3187 3187 3188 3187 3188 3189 3191 3192 3187 3186 3186 3185 3185 3184 3183 3183 3182 3181 3180 3179 3178 3177 3175 3172 3169 3167 3165
3163 3163 3165 3168 3169 3171 3172 3174 3175 3177 3178 3180 3182 3184 3185 3187 3188 3188 3188 3188 3188 3189 3188 3188 3188 3186 3185 3184 3184 3183 3183 3183 3182 3182 3181 3180 3178 3177 3175 3173 3171 3169 3167 3165
3160 3163 3165 3167 3168 3169 3171 3173 3175 3175 3176 3178 3180 3182 3184 3186 3187 3187 3189 3189 3190 3187 3186 3185 3184 3184 3184 3183 3182 3181 3181 3181 3181 3180 3179 3178 3177 3176 3175 3173 3171 3169 3166 3164
3159 3162 3164 3164 3164 3167 3169 3171 3173 3173 3175 3176 3177 3179 3180 3182 3184 3184 3185 3185 3185 3184 3182 3182 3182 3181 3181 3180 3179 3179 3179 3179 3179 3179 3178 3177 3176 3175 3173 3172 3169 3168 3165 3162